This is the latest recevied weather packets stored in our database for station/object DK9HI-WX. If no packets are shown the sender has not sent any weather packets the latest 10 day(s).
| Time | Temp. | Humidity | Pressure | Rain* | Wind** | Luminosity | Snow |
|---|---|---|---|---|---|---|---|
| 1777524175 | 4.44° C | 69% | 1033.5 hPa | - | - | - | - |
| 1777523575 | 4.44° C | 69% | 1033.4 hPa | - | - | - | - |
| 1777522974 | 4.44° C | 68% | 1033.4 hPa | - | - | - | - |
| 1777522374 | 4.44° C | 68% | 1033.2 hPa | - | - | - | - |
| 1777521774 | 4.44° C | 68% | 1033.2 hPa | - | - | - | - |
| 1777521174 | 4.44° C | 68% | 1033.2 hPa | - | - | - | - |
| 1777520574 | 4.44° C | 69% | 1033.3 hPa | - | - | - | - |
| 1777519974 | 3.89° C | 69% | 1033.1 hPa | - | - | - | - |
| 1777519374 | 4.44° C | 69% | 1033.1 hPa | - | - | - | - |
| 1777518774 | 4.44° C | 68% | 1032.9 hPa | - | - | - | - |
| 1777518174 | 4.44° C | 67% | 1033 hPa | - | - | - | - |
| 1777517574 | 4.44° C | 66% | 1032.9 hPa | - | - | - | - |
| 1777516974 | 5° C | 66% | 1033 hPa | - | - | - | - |
| 1777516374 | 5° C | 65% | 1032.9 hPa | - | - | - | - |
| 1777515774 | 5° C | 64% | 1033 hPa | - | - | - | - |
| 1777515174 | 5.56° C | 62% | 1032.9 hPa | - | - | - | - |
| 1777514574 | 6.11° C | 61% | 1032.9 hPa | - | - | - | - |
| 1777513974 | 5.56° C | 62% | 1032.8 hPa | - | - | - | - |
| 1777513374 | 6.11° C | 61% | 1032.8 hPa | - | - | - | - |
| 1777512774 | 6.11° C | 61% | 1032.8 hPa | - | - | - | - |
| 1777512174 | 6.11° C | 60% | 1032.6 hPa | - | - | - | - |
| 1777511574 | 6.11° C | 59% | 1032.7 hPa | - | - | - | - |
| 1777510974 | 6.67° C | 58% | 1032.5 hPa | - | - | - | - |
| 1777510375 | 6.67° C | 59% | 1032.5 hPa | - | - | - | - |
| 1777509774 | 6.67° C | 59% | 1032.5 hPa | - | - | - | - |
* Rain since midnight (hover to see other rain measurements)
** Current wind speed in m/s (hover to see current wind gust speed)